Voltar ao catálogo

CZ-4B DEB

AtivoSSO
NORAD 46484·DEBRIS·🇨🇳 China

Lançado Sep 27, 2020 de Taiyuan Satellite Launch Center

Loading…

Próximas Passagens (próximas 24 horas)

TLE

AtualizadoSource: Space-Track

Época: Sep 14, 2026, 08:42 UTC

1 46484U 20067G   26257.36291988  .00004201  00000-0  34573-3 0  9991
2 46484  97.6130 309.2659 0036887  93.9964 266.5477 14.99105802323318

Acompanhe CZ-4B DEB em tempo real com AllMySat

Download on the App Store